Flag for Australia Weather past 2 weeks in Alice Springs, Northern Territory, Australia

Now
90 °F

Clear.


Feels Like: 86 °F
Forecast: 75 / 94 °F
Wind: 17 mph from Southeast

Location: Alice Springs Aerodrome

Current Time: Mar 5, 2015 at 1:12:29 AM

Latest Report: Mar 5, 2015 at 12:30 AM


Visibility: N/A

Pressure: 29.98 "Hg

Humidity: 18%

Dew point: 41 °F

Location of Alice SpringsLocation

Historic Weather in Alice Springs — Graph

°F

Alice Springs temperature yesterday

Maximum temperature yesterday: 102 °F (at 1:30 PM)
Minimum temperature yesterday: 77 °F (at 2:00 AM)
Average temperature yesterday: 90 °F

Past Weeks' High & Low Weather Summary

 TemperatureHumidityPressure
High104 °F (Feb 28, 1:30 PM)78% (Feb 23, 5:30 AM)30.04 "Hg (Feb 23, 5:30 AM)
Low66 °F (Feb 21, 6:00 AM)9% (Feb 28, 11:00 AM)29.68 "Hg (Feb 27, 4:30 PM)
Average87 °F30%29.85 "Hg
* Reported Feb 17 11:30 PM — Mar 4 11:30 PM, Alice Springs, Weather by CustomWeather, © 2015

Note: Actual official high and low records may vary slightly from our data, if they occured in-between our weather recording intervals... More about our weather records

Advertising

Alice Springs weather history for previous 24 hours

 ConditionsComfort  
Time TempWeatherWind HumidityBarometerVisibility
11:30 PM
Wed, Mar 4
91 °FClear.16 mph17%29.98 "HgN/A
11:00 PM91 °FClear.12 mph18%29.95 "HgN/A
10:30 PM91 °FClear.8 mph20%29.95 "HgN/A
9:30 PM93 °FClear.8 mph19%29.95 "HgN/A
9:00 PM91 °FClear.8 mph21%29.95 "HgN/A
8:30 PM93 °FClear.8 mph19%29.92 "HgN/A
7:30 PM97 °FClear.9 mph16%29.89 "HgN/A
7:00 PM97 °FClear.9 mph16%29.89 "HgN/A
6:30 PM99 °FSunny.10 mph15%29.86 "HgN/A
6:00 PM100 °FSunny.10 mph14%29.86 "HgN/A
5:30 PM100 °FSunny.13 mph14%29.86 "HgN/A
5:00 PM102 °FPassing clouds.10 mph13%29.86 "HgN/A
4:30 PM100 °FPassing clouds.13 mph13%29.86 "HgN/A
4:00 PM102 °FSunny.14 mph12%29.86 "Hg10 mi
3:30 PM102 °FSunny.12 mph13%29.86 "Hg10 mi
3:00 PM100 °FSunny.10 mph14%29.86 "Hg10 mi
2:30 PM102 °FPassing clouds.15 mph12%29.89 "HgN/A
2:00 PM100 °FDuststorm.14 mph14%29.89 "HgN/A
1:30 PM102 °FSunny.12 mph12%29.89 "Hg10 mi
12:30 PM100 °FPassing clouds.10 mph14%29.92 "HgN/A
12:00 PM99 °FPassing clouds.10 mph15%29.95 "HgN/A
11:30 AM95 °FPassing clouds.9 mph16%29.95 "HgN/A
11:00 AM95 °FPassing clouds.9 mph15%29.98 "HgN/A
10:30 AM93 °FSunny.10 mph15%29.98 "Hg10 mi
10:00 AM91 °FSunny.13 mph15%29.98 "Hg10 mi
9:30 AM90 °FSunny.14 mph16%29.98 "Hg10 mi
9:00 AM88 °FSunny.15 mph17%29.98 "Hg10 mi
8:30 AM88 °FSunny.13 mph18%29.98 "Hg10 mi
8:00 AM86 °FSunny.7 mph20%29.98 "Hg10 mi
7:30 AM82 °FSunny.6 mph25%29.95 "Hg10 mi
7:00 AM79 °FSunny.8 mph28%29.95 "Hg10 mi
6:30 AM77 °FSunny.7 mph32%29.95 "Hg10 mi
6:00 AM77 °FSunny.7 mph30%29.92 "Hg10 mi
5:30 AM77 °FOvercast.No wind36%29.92 "HgN/A
4:30 AM81 °FPassing clouds.5 mph32%29.89 "HgN/A
4:00 AM82 °FClear.7 mph25%29.89 "HgN/A
3:30 AM84 °FPassing clouds.6 mph22%29.89 "HgN/A
3:00 AM81 °FOvercast.7 mph30%29.89 "HgN/A
2:30 AM79 °FOvercast.No wind39%29.89 "HgN/A
2:00 AM77 °FPassing clouds.No wind39%29.89 "HgN/A
1:30 AM79 °FClear.3 mph39%29.89 "HgN/A
1:00 AM81 °FClear.6 mph32%29.89 "HgN/A
Weather by CustomWeather, © 2015

See weather overviewHow to use our weather pages